Regional Weather Roundup
Issued by NWS

Home | Current Version | Previous Version | Text Only | Print | Product List | Glossary Off
Versions: 1 2 3 4 5 6 7 8 9 10 11 12 13 14 15 16 17 18 19 20 21 22 23 24 25 26 27 28 29 30 31 32 33 34 35 36 37 38 39 40 41 42 43 44 45 46 47 48 49 50

000
ASUS45 KCYS 270210
RWRWY

WYOMING REGIONAL WEATHER ROUNDUP
NATIONAL WEATHER SERVICE CHEYENNE WY
800 PM MDT THU MAR 26 2015

NOTE:  "FAIR" INDICATES FEW OR NO CLOUDS BELOW 12,000 FEET
WITH NO SIGNIFICANT WEATHER AND/OR OBSTRUCTIONS TO VISIBILITY.

WYZ001-270300-
YELLOWSTONE NATIONAL PARK

CITY           SKY/WX    TMP DP  RH WIND       PRES   REMARKS
LK YELLOWSTONE   N/A     37  30  75 CALM      30.38R
W YELLOWSTONE  NOT AVBL

$$
WYZ002>013-054>058-071-098>099-270300-
NORTHERN WYOMING

CITY           SKY/WX    TMP DP  RH WIND       PRES   REMARKS
JACKSON        MOCLDY    43  32  65 CALM      30.33R
CODY           FAIR      55  28  35 W8        30.15S
GREYBULL       CLOUDY    57  31  37 SE5       30.10S
WORLAND        CLOUDY    54  33  45 E6        30.12R
SHERIDAN       CLOUDY    53  37  54 N9        30.09S
BUFFALO        CLOUDY    50  37  61 NW10G21   30.12S
GILLETTE       CLOUDY    48  35  60 W6        30.08F
HULETT         CLOUDY    43  34  70 CALM      30.12S
NEWCASTLE      FAIR      43  30  61 NE5       30.11S

$$
WYZ014>020-022>026-101>103-270300-
CENTRAL WYOMING

CITY           SKY/WX    TMP DP  RH WIND       PRES   REMARKS
BIG PINEY      FAIR      42  28  57 NW13      30.32S
PINEDALE       FAIR      41  30  65 W18       30.31S
DUBOIS         FAIR      43  28  56 NW17G30   30.28S
LANDER         FAIR      53  27  36 NW9       30.16R
RIVERTON       FAIR      54  28  36 NW16G22   30.17R
CASPER         CLOUDY    48  31  51 CALM      30.14R
DOUGLAS        CLOUDY    49  30  48 NW3       30.13R

$$
WYZ021-027>030-104>119-270300-
SOUTHERN WYOMING

CITY           SKY/WX    TMP DP  RH WIND       PRES   REMARKS
EVANSTON       FAIR      45  27  49 W6        30.36S
KEMMERER       FAIR      41  32  70 W10       30.36S
FORT BRIDGER   FAIR      47  29  50 N8        30.38R
ROCK SPRINGS   FAIR      47  28  47 W23       30.29R
DIXON          CLOUDY    51  27  40 W5        30.25S
RAWLINS        FAIR      51  25  36 W13       30.19R
SARATOGA       CLOUDY    50  27  40 W13       30.20S
LARAMIE        CLOUDY    45  25  45 W9        30.18R
CHEYENNE       CLOUDY    47  26  44 N9        30.14S
TORRINGTON     FAIR      45  32  60 N14       30.11R
PINE BLUFFS    MOCLDY    41  28  60 N3        30.15R

$$



USA.gov is the U.S. government's official web portal to all federal, state and local government web resources and services.